Ashland, WI

5:19 PM CST on December 16, 2017 (GMT -0600)
Kennedy Memorial

Weather History for KASX - July, 2013

Change the Weather History Date:

Monday, July 8, 2013

  Actual Average Record
Temperature  
Mean Temperature 62 °F -  
Max Temperature 71 °F 81 °F 100 °F (1988)
Min Temperature 53 °F 56 °F 37 °F (1961)
Degree Days  
Heating Degree Days 3    
Growing Degree Days 12 (Base 50)    
Moisture  
Dew Point 56 °F    
Average Humidity 92    
Maximum Humidity 100    
Minimum Humidity 73    
Precipitation  
Precipitation 0.79 in - - ()
Sea Level Pressure  
Sea Level Pressure 30.00 in    
Wind  
Wind Speed 6 mph (NNE)    
Max Wind Speed 17 mph    
Max Gust Speed 20 mph    
Visibility 5 miles    
Events Fog , Rain , Thunderstorm    
Averages and records for this station are not official NWS values.
T = Trace of Precipitation, MM = Missing Value Source: NWS Daily Summary

Daily Weather History Graph

Daily Weather History Graph

Search for Another Location

Airport or City:

Trip Planner

Search our weather history database for the weather conditions in past years. The results will help you decide how hot, cold, wet, or windy it might be!

Date:

Astronomy

Jul. 08, 2013 Rise Set
Actual Time 5:19 AM CDT 8:57 PM CDT
Civil Twilight 4:41 AM CDT 9:35 PM CDT
Nautical Twilight 3:49 AM CDT 10:26 PM CDT
Astronomical Twilight 2:39 AM CDT 11:36 PM CDT
Moon 5:54 AM CDT (7/8) 8:52 PM CDT (7/8)
Length of Visible Light 16h 54m
Length of Day
15h 38m
New Moon, 0% of the Moon is Illuminated
Jul 8
New Moon
Jul 15
First Quarter
Jul 22
Full
Jul 29
Last Quarter
Aug 6
New

Hourly Weather History & Observations

Time (CDT) Temp. Dew Point Humidity Pressure Visibility Wind Dir Wind Speed Gust Speed Precip Events Conditions
12:11 AM 57.2 °F 55.4 °F 94% 29.93 in 1.0 mi NNE 17.3 mph - 0.60 in Rain , Thunderstorm Heavy Thunderstorms and Rain
12:22 AM 55.4 °F 55.4 °F 100% 29.92 in 1.5 mi NNE 12.7 mph - 0.74 in Rain , Thunderstorm Heavy Thunderstorms and Rain
12:25 AM 55.4 °F 55.4 °F 100% 29.92 in 2.5 mi NNE 9.2 mph 19.6 mph 0.75 in Rain , Thunderstorm Thunderstorms and Rain
12:27 AM 57.2 °F 55.4 °F 94% 29.93 in 3.0 mi NNE 9.2 mph 19.6 mph 0.75 in Rain , Thunderstorm Light Thunderstorms and Rain
12:53 AM 55.9 °F 55.0 °F 97% 29.95 in 4.0 mi ENE 5.8 mph - 0.78 in Rain Light Rain
1:53 AM 54.0 °F 53.1 °F 97% 29.96 in 10.0 mi Calm Calm - 0.00 in   Overcast
2:14 AM 53.6 °F 53.6 °F 100% 29.96 in 1.8 mi North 5.8 mph - 0.01 in   Overcast
2:29 AM 53.6 °F 53.6 °F 100% 29.96 in 0.5 mi North 8.1 mph - 0.01 in Fog Fog
2:36 AM 53.6 °F 53.6 °F 100% 29.95 in 0.2 mi NNE 8.1 mph - 0.01 in Fog Fog
2:53 AM 53.1 °F 53.1 °F 100% 29.97 in 0.2 mi NE 4.6 mph - 0.01 in Fog Fog
3:46 AM 53.6 °F 53.6 °F 100% 29.97 in 0.2 mi Calm Calm - N/A Fog Fog
3:53 AM 53.1 °F 53.1 °F 100% 29.98 in 0.2 mi Calm Calm - N/A Fog Fog
4:30 AM 53.6 °F 53.6 °F 100% 29.97 in 0.5 mi Calm Calm - N/A Fog Fog
4:51 AM 53.6 °F 53.6 °F 100% 29.97 in 0.2 mi Calm Calm - N/A Fog Fog
4:53 AM 54.0 °F 52.0 °F 93% 29.98 in 0.2 mi Calm Calm - N/A Fog Fog
5:53 AM 54.0 °F 54.0 °F 100% 29.98 in 0.2 mi Calm Calm - N/A Fog Fog
6:53 AM 53.1 °F 53.1 °F 100% 30.00 in 0.2 mi NNE 3.5 mph - N/A Fog Fog
7:53 AM 53.1 °F 52.0 °F 96% 30.01 in 0.2 mi East 4.6 mph - N/A Fog Fog
8:19 AM 53.6 °F 53.6 °F 100% 30.01 in 0.8 mi ENE 3.5 mph - N/A   Mist
8:37 AM 53.6 °F 53.6 °F 100% 30.02 in 1.0 mi North 4.6 mph - N/A   Overcast
8:46 AM 53.6 °F 53.6 °F 100% 30.02 in 0.5 mi North 6.9 mph - N/A Fog Fog
8:53 AM 54.0 °F 53.1 °F 97% 30.03 in 0.2 mi NNE 6.9 mph - N/A Fog Fog
9:06 AM 55.4 °F 53.6 °F 94% 30.02 in 0.5 mi NNE 6.9 mph - N/A Fog Fog
9:23 AM 55.4 °F 53.6 °F 94% 30.02 in 1.2 mi NNE 4.6 mph - N/A   Overcast
9:53 AM 55.0 °F 54.0 °F 96% 30.04 in 1.0 mi Calm Calm - N/A   Overcast
10:33 AM 57.2 °F 55.4 °F 94% 30.04 in 3.0 mi Calm Calm - N/A   Overcast
10:53 AM 57.0 °F 55.9 °F 96% 30.05 in 5.0 mi Calm Calm - N/A   Overcast
11:49 AM 62.6 °F 57.2 °F 82% 30.03 in 10.0 mi Calm Calm - N/A   Overcast
11:53 AM 62.1 °F 59.0 °F 90% 30.04 in 10.0 mi Calm Calm - N/A   Overcast
12:53 PM 68.0 °F 61.0 °F 78% 30.03 in 10.0 mi Calm Calm - N/A   Overcast
1:09 PM 68.0 °F 62.6 °F 83% 30.02 in 10.0 mi Calm Calm - N/A   Overcast
1:48 PM 69.8 °F 62.6 °F 78% 30.02 in 10.0 mi Variable 4.6 mph - N/A   Mostly Cloudy
1:53 PM 71.1 °F 63.0 °F 75% 30.03 in 10.0 mi Variable 4.6 mph - N/A   Mostly Cloudy
2:20 PM 69.8 °F 62.6 °F 78% 30.02 in 10.0 mi NNE 6.9 mph - N/A   Scattered Clouds
2:53 PM 70.0 °F 62.1 °F 76% 30.01 in 10.0 mi North 9.2 mph - N/A   Clear
3:53 PM 68.0 °F 59.0 °F 73% 30.02 in 10.0 mi NNE 9.2 mph - N/A   Clear
4:53 PM 66.0 °F 57.9 °F 75% 30.03 in 10.0 mi NNE 9.2 mph - N/A   Clear
5:53 PM 64.0 °F 55.9 °F 75% 30.03 in 10.0 mi North 6.9 mph - N/A   Clear
6:53 PM 66.9 °F 57.9 °F 73% 30.02 in 10.0 mi NE 4.6 mph - N/A   Clear
7:53 PM 62.1 °F 55.9 °F 80% 30.02 in 10.0 mi NNW 3.5 mph - N/A   Clear
8:53 PM 57.0 °F 55.0 °F 93% 30.02 in 10.0 mi Calm Calm - N/A   Clear
9:53 PM 55.0 °F 54.0 °F 96% 30.02 in 10.0 mi Calm Calm - N/A   Clear
10:53 PM 54.0 °F 53.1 °F 97% 30.02 in 10.0 mi Calm Calm - N/A   Clear
11:53 PM 54.0 °F 53.1 °F 97% 30.03 in 10.0 mi Calm Calm - N/A   Clear